Time,TemperatureF,DewpointF,PressureIn,WindDirection,WindDirectionDegrees,WindSpeedMPH,WindSpeedGustMPH,Humidity,HourlyPrecipIn,Conditions,Clouds,dailyrainin,SoftwareType,DateUTC
2013-03-12 00:00:00,39.1,37.2,30.11,South,191,2.0,5.0,93,0.13,,---,0.54,VWS V14.00,2013-03-12 07:00:00,
2013-03-12 00:05:00,39.1,37.2,30.11,East,80,1.0,4.0,93,0.13,,---,0.01,VWS V14.00,2013-03-12 07:05:00,
2013-03-12 00:10:00,39.3,37.5,30.11,WSW,243,5.0,5.0,93,0.13,,---,0.02,VWS V14.00,2013-03-12 07:10:00,
2013-03-12 00:15:00,39.4,37.5,30.11,SSW,205,1.0,5.0,93,0.17,,---,0.03,VWS V14.00,2013-03-12 07:15:00,
2013-03-12 00:20:00,39.5,37.7,30.11,SSW,192,5.0,6.0,93,0.15,,---,0.04,VWS V14.00,2013-03-12 07:20:00,
2013-03-12 00:25:00,39.5,37.7,30.11,East,100,1.0,6.0,93,0.15,,---,0.06,VWS V14.00,2013-03-12 07:25:00,
2013-03-12 00:30:00,39.5,37.7,30.11,South,171,0.0,4.0,93,0.17,,---,0.06,VWS V14.00,2013-03-12 07:30:00,
2013-03-12 00:35:00,39.5,37.7,30.11,South,171,0.0,1.0,93,0.16,,---,0.08,VWS V14.00,2013-03-12 07:35:00,
2013-03-12 00:40:00,39.5,37.7,30.11,ENE,65,0.0,4.0,93,0.15,,---,0.09,VWS V14.00,2013-03-12 07:40:00,
2013-03-12 00:45:00,39.4,37.5,30.11,North,355,1.0,1.0,93,0.13,,---,0.10,VWS V14.00,2013-03-12 07:45:00,
2013-03-12 00:50:00,39.4,37.5,30.11,ENE,61,0.0,3.0,93,0.11,,---,0.11,VWS V14.00,2013-03-12 07:50:00,
2013-03-12 00:55:00,39.3,37.5,30.11,ENE,61,0.0,1.0,93,0.08,,---,0.12,VWS V14.00,2013-03-12 07:55:00,
2013-03-12 01:00:00,39.3,37.5,30.11,SSW,198,0.0,3.0,93,0.07,,---,0.12,VWS V14.00,2013-03-12 08:00:00,
2013-03-12 01:05:00,39.3,37.5,30.10,SSW,197,1.0,1.0,93,0.07,,---,0.13,VWS V14.00,2013-03-12 08:05:00,
2013-03-12 01:10:00,39.3,37.5,30.10,SSE,162,0.0,1.0,93,0.12,,---,0.14,VWS V14.00,2013-03-12 08:10:00,
2013-03-12 01:15:00,39.3,37.5,30.10,South,182,2.0,5.0,93,0.34,,---,0.17,VWS V14.00,2013-03-12 08:15:00,
2013-03-12 01:20:00,39.4,37.5,30.09,NE,47,2.0,3.0,93,0.30,,---,0.20,VWS V14.00,2013-03-12 08:20:00,
2013-03-12 01:25:00,39.4,37.5,30.09,NE,47,0.0,2.0,93,0.30,,---,0.24,VWS V14.00,2013-03-12 08:25:00,
2013-03-12 01:30:00,39.4,37.5,30.09,NE,47,1.0,1.0,93,0.19,,---,0.24,VWS V14.00,2013-03-12 08:30:00,
2013-03-12 01:35:00,39.4,37.5,30.09,NE,47,0.0,2.0,93,0.24,,---,0.26,VWS V14.00,2013-03-12 08:35:00,
2013-03-12 01:40:00,39.4,37.5,30.08,NE,47,1.0,3.0,93,0.13,,---,0.28,VWS V14.00,2013-03-12 08:40:00,
2013-03-12 01:45:00,39.3,37.5,30.08,ENE,74,0.0,3.0,93,0.09,,---,0.28,VWS V14.00,2013-03-12 08:45:00,
2013-03-12 01:50:00,39.2,37.3,30.08,ENE,62,0.0,4.0,93,0.09,,---,0.29,VWS V14.00,2013-03-12 08:50:00,
2013-03-12 01:55:00,39.1,37.2,30.08,ENE,72,0.0,3.0,93,0.15,,---,0.30,VWS V14.00,2013-03-12 08:55:00,
2013-03-12 02:00:00,39.0,37.2,30.08,NE,47,4.0,4.0,93,0.20,,---,0.31,VWS V14.00,2013-03-12 09:00:00,
2013-03-12 02:05:00,38.9,37.0,30.08,North,10,0.0,5.0,93,0.16,,---,0.33,VWS V14.00,2013-03-12 09:05:00,
2013-03-12 02:10:00,38.8,37.0,30.08,ESE,121,0.0,3.0,93,0.13,,---,0.35,VWS V14.00,2013-03-12 09:10:00,
2013-03-12 02:15:00,38.7,36.8,30.08,South,189,1.0,2.0,93,0.09,,---,0.35,VWS V14.00,2013-03-12 09:15:00,
2013-03-12 02:20:00,38.7,36.8,30.07,SE,145,0.0,2.0,93,0.09,,---,0.36,VWS V14.00,2013-03-12 09:20:00,
2013-03-12 02:25:00,38.7,37.1,30.07,ENE,59,0.0,3.0,94,0.09,,---,0.36,VWS V14.00,2013-03-12 09:25:00,
2013-03-12 02:30:00,38.6,37.0,30.07,ENE,71,0.0,3.0,94,0.09,,---,0.37,VWS V14.00,2013-03-12 09:30:00,
2013-03-12 02:35:00,38.6,36.8,30.07,ESE,116,2.0,5.0,93,0.07,,---,0.38,VWS V14.00,2013-03-12 09:35:00,
2013-03-12 02:40:00,38.6,37.0,30.07,West,275,1.0,2.0,94,0.07,,---,0.39,VWS V14.00,2013-03-12 09:40:00,
2013-03-12 02:45:00,38.6,36.8,30.07,South,181,0.0,4.0,93,0.06,,---,0.39,VWS V14.00,2013-03-12 09:45:00,
2013-03-12 02:50:00,38.7,36.8,30.07,SSE,148,1.0,4.0,93,0.05,,---,0.39,VWS V14.00,2013-03-12 09:50:00,
2013-03-12 02:55:00,38.7,36.8,30.07,SSW,207,1.0,4.0,93,0.03,,---,0.39,VWS V14.00,2013-03-12 09:55:00,
2013-03-12 03:00:00,38.7,36.8,30.06,SSW,205,0.0,2.0,93,0.00,,---,0.39,VWS V14.00,2013-03-12 10:00:00,
2013-03-12 03:05:00,38.7,36.8,30.06,SSE,163,1.0,1.0,93,0.00,,---,0.39,VWS V14.00,2013-03-12 10:05:00,
2013-03-12 03:10:00,38.8,37.2,30.06,WSW,251,0.0,2.0,94,0.00,,---,0.39,VWS V14.00,2013-03-12 10:10:00,
2013-03-12 03:15:00,38.8,37.2,30.05,SE,133,0.0,2.0,94,0.03,,---,0.40,VWS V14.00,2013-03-12 10:15:00,
2013-03-12 03:20:00,38.8,37.2,30.05,SSE,167,0.0,2.0,94,0.03,,---,0.40,VWS V14.00,2013-03-12 10:20:00,
2013-03-12 03:25:00,38.8,37.2,30.04,ESE,108,1.0,5.0,94,0.03,,---,0.40,VWS V14.00,2013-03-12 10:25:00,
2013-03-12 03:30:00,38.9,37.3,30.05,SSE,165,1.0,3.0,94,0.03,,---,0.40,VWS V14.00,2013-03-12 10:30:00,
2013-03-12 03:35:00,38.9,37.3,30.04,South,181,0.0,4.0,94,0.00,,---,0.40,VWS V14.00,2013-03-12 10:35:00,
2013-03-12 03:40:00,39.0,37.4,30.04,South,176,0.0,4.0,94,0.00,,---,0.40,VWS V14.00,2013-03-12 10:40:00,
2013-03-12 03:45:00,39.0,37.4,30.04,South,176,2.0,2.0,94,0.00,,---,0.40,VWS V14.00,2013-03-12 10:45:00,
2013-03-12 03:50:00,39.0,37.4,30.04,SSE,168,0.0,6.0,94,0.00,,---,0.40,VWS V14.00,2013-03-12 10:50:00,
2013-03-12 03:55:00,39.0,37.4,30.03,North,11,0.0,4.0,94,0.00,,---,0.40,VWS V14.00,2013-03-12 10:55:00,
2013-03-12 04:00:00,39.1,37.5,30.03,NNE,32,0.0,1.0,94,0.00,,---,0.40,VWS V14.00,2013-03-12 11:00:00,
2013-03-12 04:05:00,39.1,37.5,30.02,South,175,2.0,4.0,94,0.00,,---,0.40,VWS V14.00,2013-03-12 11:05:00,
2013-03-12 04:10:00,39.1,37.5,30.02,South,188,0.0,4.0,94,0.00,,---,0.40,VWS V14.00,2013-03-12 11:10:00,
2013-03-12 04:15:00,39.1,37.5,30.02,SSW,192,2.0,4.0,94,0.00,,---,0.40,VWS V14.00,2013-03-12 11:15:00,
2013-03-12 04:20:00,39.2,37.6,30.02,SSE,153,1.0,4.0,94,0.00,,---,0.40,VWS V14.00,2013-03-12 11:20:00,
2013-03-12 04:25:00,39.2,37.6,30.01,SSE,151,4.0,4.0,94,0.00,,---,0.40,VWS V14.00,2013-03-12 11:25:00,
2013-03-12 04:30:00,39.3,37.7,30.02,SSE,164,2.0,5.0,94,0.00,,---,0.40,VWS V14.00,2013-03-12 11:30:00,
2013-03-12 04:35:00,39.3,37.7,30.01,SE,140,0.0,5.0,94,0.00,,---,0.41,VWS V14.00,2013-03-12 11:35:00,
2013-03-12 04:40:00,39.3,37.7,30.01,SE,144,0.0,4.0,94,0.00,,---,0.41,VWS V14.00,2013-03-12 11:40:00,
2013-03-12 04:45:00,39.3,37.7,30.00,SSE,161,1.0,5.0,94,0.04,,---,0.42,VWS V14.00,2013-03-12 11:45:00,
2013-03-12 04:50:00,39.4,37.8,30.00,SE,140,2.0,4.0,94,0.04,,---,0.43,VWS V14.00,2013-03-12 11:50:00,
2013-03-12 04:55:00,39.4,37.8,29.99,South,173,1.0,6.0,94,0.07,,---,0.43,VWS V14.00,2013-03-12 11:55:00,
2013-03-12 05:00:00,39.4,37.8,29.99,South,191,1.0,4.0,94,0.05,,---,0.43,VWS V14.00,2013-03-12 12:00:00,
2013-03-12 05:05:00,39.4,37.8,29.99,SE,142,1.0,4.0,94,0.04,,---,0.43,VWS V14.00,2013-03-12 12:05:00,
2013-03-12 05:10:00,39.5,37.9,29.99,ESE,123,2.0,4.0,94,0.04,,---,0.43,VWS V14.00,2013-03-12 12:10:00,
2013-03-12 05:15:00,39.5,37.9,29.98,ESE,118,1.0,4.0,94,0.05,,---,0.44,VWS V14.00,2013-03-12 12:15:00,
2013-03-12 05:20:00,39.5,37.9,29.98,SE,132,2.0,6.0,94,0.05,,---,0.44,VWS V14.00,2013-03-12 12:20:00,
2013-03-12 05:25:00,39.5,37.9,29.98,South,169,0.0,5.0,94,0.04,,---,0.44,VWS V14.00,2013-03-12 12:25:00,
2013-03-12 05:30:00,39.6,38.0,29.97,SSE,166,0.0,5.0,94,0.03,,---,0.44,VWS V14.00,2013-03-12 12:30:00,
2013-03-12 05:35:00,39.6,38.0,29.97,SSE,164,1.0,4.0,94,0.00,,---,0.45,VWS V14.00,2013-03-12 12:35:00,
2013-03-12 05:40:00,39.6,38.0,29.97,ESE,120,0.0,4.0,94,0.00,,---,0.45,VWS V14.00,2013-03-12 12:40:00,
2013-03-12 05:45:00,39.7,38.1,29.97,South,169,1.0,6.0,94,0.04,,---,0.46,VWS V14.00,2013-03-12 12:45:00,
2013-03-12 05:50:00,39.7,38.1,29.97,SE,138,0.0,2.0,94,0.04,,---,0.46,VWS V14.00,2013-03-12 12:50:00,
2013-03-12 05:55:00,39.7,38.1,29.97,SE,142,0.0,4.0,94,0.06,,---,0.46,VWS V14.00,2013-03-12 12:55:00,
2013-03-12 06:00:00,39.7,38.1,29.97,East,88,1.0,4.0,94,0.06,,---,0.46,VWS V14.00,2013-03-12 13:00:00,
2013-03-12 06:05:00,39.8,38.2,29.97,East,82,2.0,4.0,94,0.05,,---,0.47,VWS V14.00,2013-03-12 13:05:00,
2013-03-12 06:10:00,39.8,38.2,29.97,ENE,74,2.0,4.0,94,0.05,,---,0.48,VWS V14.00,2013-03-12 13:10:00,
2013-03-12 06:15:00,39.8,38.2,29.97,NNE,18,0.0,3.0,94,0.06,,---,0.48,VWS V14.00,2013-03-12 13:15:00,
2013-03-12 06:20:00,39.8,38.2,29.97,NE,41,1.0,3.0,94,0.08,,---,0.49,VWS V14.00,2013-03-12 13:20:00,
2013-03-12 06:25:00,39.8,38.2,29.97,NNE,26,0.0,2.0,94,0.06,,---,0.49,VWS V14.00,2013-03-12 13:25:00,
2013-03-12 06:30:00,39.8,38.2,29.97,NNE,26,0.0,1.0,94,0.04,,---,0.50,VWS V14.00,2013-03-12 13:30:00,
2013-03-12 06:35:00,39.8,38.2,29.97,NNE,26,0.0,2.0,94,0.10,,---,0.50,VWS V14.00,2013-03-12 13:35:00,
2013-03-12 06:40:00,39.8,38.2,29.97,NNE,22,0.0,1.0,94,0.16,,---,0.52,VWS V14.00,2013-03-12 13:40:00,
2013-03-12 06:45:00,39.8,38.2,29.96,NNE,21,0.0,1.0,94,0.15,,---,0.54,VWS V14.00,2013-03-12 13:45:00,
2013-03-12 06:50:00,39.8,38.2,29.96,NNE,22,0.0,2.0,94,0.15,,---,0.55,VWS V14.00,2013-03-12 13:50:00,
2013-03-12 06:55:00,39.8,38.2,29.96,NW,313,0.0,5.0,94,0.20,,---,0.57,VWS V14.00,2013-03-12 13:55:00,
2013-03-12 07:00:00,39.8,38.2,29.96,WNW,291,1.0,5.0,94,0.14,,---,0.57,VWS V14.00,2013-03-12 14:00:00,
2013-03-12 07:05:00,39.8,38.2,29.96,WNW,291,0.0,2.0,94,0.12,,---,0.59,VWS V14.00,2013-03-12 14:05:00,
2013-03-12 07:10:00,39.8,38.2,29.95,WNW,291,0.0,1.0,94,0.24,,---,0.61,VWS V14.00,2013-03-12 14:10:00,
2013-03-12 07:15:00,39.8,38.2,29.95,WNW,291,1.0,1.0,94,0.12,,---,0.62,VWS V14.00,2013-03-12 14:15:00,
2013-03-12 07:20:00,39.8,38.2,29.95,WNW,291,1.0,4.0,94,0.09,,---,0.62,VWS V14.00,2013-03-12 14:20:00,
2013-03-12 07:25:00,39.8,38.2,29.96,WNW,291,0.0,2.0,94,0.05,,---,0.63,VWS V14.00,2013-03-12 14:25:00,
2013-03-12 07:30:00,39.7,38.1,29.95,WNW,291,0.0,0.0,94,0.05,,---,0.63,VWS V14.00,2013-03-12 14:30:00,
2013-03-12 07:35:00,39.7,38.1,29.95,WNW,291,0.0,0.0,94,0.06,,---,0.65,VWS V14.00,2013-03-12 14:35:00,
2013-03-12 07:40:00,39.8,38.2,29.95,WNW,291,0.0,0.0,94,0.10,,---,0.65,VWS V14.00,2013-03-12 14:40:00,
2013-03-12 07:45:00,39.8,38.2,29.95,WNW,291,0.0,1.0,94,0.08,,---,0.65,VWS V14.00,2013-03-12 14:45:00,
2013-03-12 07:50:00,40.0,38.4,29.95,West,270,2.0,4.0,94,0.09,,---,0.66,VWS V14.00,2013-03-12 14:50:00,
2013-03-12 07:55:00,40.0,38.4,29.95,North,5,1.0,2.0,94,0.06,,---,0.67,VWS V14.00,2013-03-12 14:55:00,
2013-03-12 08:00:00,40.0,38.4,29.95,NW,311,1.0,5.0,94,0.06,,---,0.68,VWS V14.00,2013-03-12 15:00:00,
2013-03-12 08:05:00,40.2,38.6,29.95,NW,314,1.0,4.0,94,0.08,,---,0.68,VWS V14.00,2013-03-12 15:05:00,
2013-03-12 08:10:00,40.2,38.6,29.95,NW,313,0.0,1.0,94,0.05,,---,0.68,VWS V14.00,2013-03-12 15:10:00,
2013-03-12 08:15:00,40.2,38.6,29.95,NW,314,0.0,2.0,94,0.03,,---,0.69,VWS V14.00,2013-03-12 15:15:00,
2013-03-12 08:20:00,40.3,38.7,29.95,NNW,338,1.0,4.0,94,0.03,,---,0.69,VWS V14.00,2013-03-12 15:20:00,
2013-03-12 08:25:00,40.5,38.9,29.95,NW,317,0.0,2.0,94,0.03,,---,0.69,VWS V14.00,2013-03-12 15:25:00,
2013-03-12 08:30:00,40.6,39.0,29.95,NW,317,0.0,1.0,94,0.03,,---,0.69,VWS V14.00,2013-03-12 15:30:00,
2013-03-12 08:35:00,40.6,39.0,29.95,NW,317,0.0,2.0,94,0.00,,---,0.69,VWS V14.00,2013-03-12 15:35:00,
2013-03-12 08:40:00,40.6,39.0,29.95,NW,317,0.0,0.0,94,0.00,,---,0.69,VWS V14.00,2013-03-12 15:40:00,
2013-03-12 08:45:00,40.6,39.0,29.95,NW,317,1.0,1.0,94,0.00,,---,0.69,VWS V14.00,2013-03-12 15:45:00,
2013-03-12 08:50:00,40.7,39.1,29.95,NW,317,0.0,2.0,94,0.00,,---,0.69,VWS V14.00,2013-03-12 15:50:00,
2013-03-12 08:55:00,40.9,39.3,29.95,NW,317,0.0,1.0,94,0.00,,---,0.69,VWS V14.00,2013-03-12 15:55:00,
2013-03-12 09:00:00,41.0,39.4,29.95,NW,317,0.0,1.0,94,0.00,,---,0.69,VWS V14.00,2013-03-12 16:00:00,
2013-03-12 09:05:00,41.1,39.5,29.95,NW,317,1.0,1.0,94,0.00,,---,0.69,VWS V14.00,2013-03-12 16:05:00,
2013-03-12 09:10:00,41.1,39.5,29.95,NW,317,0.0,2.0,94,0.00,,---,0.69,VWS V14.00,2013-03-12 16:10:00,
2013-03-12 09:15:00,41.3,39.7,29.95,NW,317,1.0,1.0,94,0.00,,---,0.69,VWS V14.00,2013-03-12 16:15:00,
2013-03-12 09:20:00,41.3,39.7,29.96,NW,317,0.0,1.0,94,0.00,,---,0.69,VWS V14.00,2013-03-12 16:20:00,
2013-03-12 09:25:00,41.4,39.8,29.95,NW,317,0.0,1.0,94,0.00,,---,0.69,VWS V14.00,2013-03-12 16:25:00,
2013-03-12 09:30:00,41.5,40.2,29.95,NW,317,0.0,0.0,95,0.00,,---,0.69,VWS V14.00,2013-03-12 16:30:00,
2013-03-12 09:35:00,41.7,40.4,29.95,NW,317,0.0,1.0,95,0.00,,---,0.69,VWS V14.00,2013-03-12 16:35:00,
2013-03-12 09:40:00,42.0,40.4,29.95,NW,317,0.0,2.0,94,0.00,,---,0.69,VWS V14.00,2013-03-12 16:40:00,
2013-03-12 09:45:00,42.2,40.9,29.95,NW,317,0.0,0.0,95,0.00,,---,0.69,VWS V14.00,2013-03-12 16:45:00,
2013-03-12 09:50:00,42.4,41.1,29.95,NW,317,0.0,0.0,95,0.00,,---,0.69,VWS V14.00,2013-03-12 16:50:00,
2013-03-12 09:55:00,42.4,40.8,29.95,NW,317,0.0,1.0,94,0.00,,---,0.69,VWS V14.00,2013-03-12 16:55:00,
2013-03-12 10:00:00,42.6,41.0,29.95,NW,317,1.0,1.0,94,0.00,,---,0.69,VWS V14.00,2013-03-12 17:00:00,
2013-03-12 10:05:00,42.7,41.4,29.95,NW,317,0.0,1.0,95,0.00,,---,0.69,VWS V14.00,2013-03-12 17:05:00,
2013-03-12 10:10:00,43.3,42.0,29.96,NW,317,0.0,1.0,95,0.00,,---,0.69,VWS V14.00,2013-03-12 17:10:00,
2013-03-12 10:15:00,43.6,42.3,29.96,West,273,4.0,5.0,95,0.00,,---,0.69,VWS V14.00,2013-03-12 17:15:00,
2013-03-12 10:20:00,43.6,42.3,29.96,West,277,1.0,5.0,95,0.00,,---,0.69,VWS V14.00,2013-03-12 17:20:00,
2013-03-12 10:25:00,43.6,42.0,29.96,West,280,0.0,2.0,94,0.00,,---,0.69,VWS V14.00,2013-03-12 17:25:00,
2013-03-12 10:30:00,43.8,42.2,29.96,West,280,0.0,2.0,94,0.00,,---,0.69,VWS V14.00,2013-03-12 17:30:00,
2013-03-12 10:35:00,44.3,43.0,29.96,West,280,0.0,1.0,95,0.00,,---,0.69,VWS V14.00,2013-03-12 17:35:00,
2013-03-12 10:40:00,44.3,43.0,29.96,West,279,0.0,4.0,95,0.00,,---,0.69,VWS V14.00,2013-03-12 17:40:00,
2013-03-12 10:45:00,44.4,42.8,29.96,West,279,0.0,1.0,94,0.00,,---,0.69,VWS V14.00,2013-03-12 17:45:00,
2013-03-12 10:50:00,44.6,43.3,29.97,West,280,0.0,2.0,95,0.00,,---,0.69,VWS V14.00,2013-03-12 17:50:00,
2013-03-12 10:55:00,44.6,43.3,29.97,West,280,0.0,2.0,95,0.00,,---,0.69,VWS V14.00,2013-03-12 17:55:00,
2013-03-12 11:00:00,44.7,43.4,29.96,West,280,0.0,2.0,95,0.00,,---,0.69,VWS V14.00,2013-03-12 18:00:00,
2013-03-12 11:05:00,44.7,43.4,29.97,West,280,0.0,1.0,95,0.00,,---,0.69,VWS V14.00,2013-03-12 18:05:00,
2013-03-12 11:10:00,44.8,43.2,29.97,West,280,0.0,2.0,94,0.00,,---,0.69,VWS V14.00,2013-03-12 18:10:00,
2013-03-12 11:15:00,44.8,43.2,29.97,West,280,0.0,1.0,94,0.00,,---,0.69,VWS V14.00,2013-03-12 18:15:00,
2013-03-12 11:20:00,44.9,43.3,29.97,West,280,2.0,2.0,94,0.00,,---,0.69,VWS V14.00,2013-03-12 18:20:00,
2013-03-12 11:25:00,45.0,43.7,29.97,West,280,0.0,2.0,95,0.00,,---,0.69,VWS V14.00,2013-03-12 18:25:00,
2013-03-12 11:30:00,45.1,43.8,29.97,West,280,0.0,1.0,95,0.00,,---,0.69,VWS V14.00,2013-03-12 18:30:00,
2013-03-12 11:35:00,45.4,44.0,29.97,West,280,0.0,2.0,95,0.00,,---,0.69,VWS V14.00,2013-03-12 18:35:00,
2013-03-12 11:40:00,46.0,44.7,29.98,West,280,1.0,2.0,95,0.00,,---,0.69,VWS V14.00,2013-03-12 18:40:00,
2013-03-12 11:45:00,46.5,45.2,29.97,NW,314,0.0,4.0,95,0.00,,---,0.69,VWS V14.00,2013-03-12 18:45:00,
2013-03-12 11:50:00,46.3,45.0,29.97,ENE,57,0.0,5.0,95,0.00,,---,0.69,VWS V14.00,2013-03-12 18:50:00,
2013-03-12 11:55:00,46.6,45.2,29.97,ENE,57,0.0,2.0,95,0.00,,---,0.73,VWS V14.00,2013-03-12 18:55:00,
2013-03-12 12:00:00,46.9,45.5,29.97,NW,324,2.0,4.0,95,0.00,,---,0.73,VWS V14.00,2013-03-12 19:00:00,
2013-03-12 12:05:00,47.1,45.7,29.97,NW,324,2.0,2.0,95,0.00,,---,0.73,VWS V14.00,2013-03-12 19:05:00,
2013-03-12 12:10:00,47.4,46.0,29.97,NW,324,1.0,2.0,95,0.00,,---,0.73,VWS V14.00,2013-03-12 19:10:00,
2013-03-12 12:15:00,48.0,46.6,29.97,West,279,1.0,4.0,95,0.00,,---,0.73,VWS V14.00,2013-03-12 19:15:00,
2013-03-12 12:20:00,48.0,46.6,29.97,NW,307,2.0,5.0,95,0.00,,---,0.73,VWS V14.00,2013-03-12 19:20:00,
2013-03-12 12:25:00,48.3,46.9,29.97,WNW,294,2.0,4.0,95,0.00,,---,0.73,VWS V14.00,2013-03-12 19:25:00,
2013-03-12 12:30:00,48.5,47.1,29.97,WNW,300,1.0,4.0,95,0.00,,---,0.73,VWS V14.00,2013-03-12 19:30:00,
2013-03-12 12:35:00,49.1,47.7,29.97,NW,306,0.0,2.0,95,0.00,,---,0.73,VWS V14.00,2013-03-12 19:35:00,
2013-03-12 12:40:00,49.3,47.9,29.98,NNW,327,1.0,6.0,95,0.00,,---,0.73,VWS V14.00,2013-03-12 19:40:00,
2013-03-12 12:45:00,49.7,48.3,29.97,NW,326,1.0,2.0,95,0.00,,---,0.73,VWS V14.00,2013-03-12 19:45:00,
2013-03-12 12:50:00,49.8,48.4,29.98,West,261,0.0,4.0,95,0.00,,---,0.73,VWS V14.00,2013-03-12 19:50:00,
2013-03-12 12:55:00,50.1,48.7,29.98,NNW,336,1.0,4.0,95,0.00,,---,0.73,VWS V14.00,2013-03-12 19:55:00,
2013-03-12 13:00:00,49.9,48.5,29.98,WSW,246,0.0,6.0,95,0.00,,---,0.73,VWS V14.00,2013-03-12 20:00:00,
2013-03-12 13:05:00,49.2,47.8,29.98,East,82,1.0,4.0,95,0.00,,---,0.73,VWS V14.00,2013-03-12 20:05:00,
2013-03-12 13:10:00,49.6,48.2,29.97,ENE,69,0.0,3.0,95,0.00,,---,0.73,VWS V14.00,2013-03-12 20:10:00,
2013-03-12 13:15:00,49.7,48.3,29.98,North,9,0.0,2.0,95,0.00,,---,0.73,VWS V14.00,2013-03-12 20:15:00,
2013-03-12 13:20:00,49.9,48.2,29.98,NNW,346,1.0,2.0,94,0.00,,---,0.73,VWS V14.00,2013-03-12 20:20:00,
2013-03-12 13:25:00,50.0,48.3,29.98,NNW,347,0.0,2.0,94,0.00,,---,0.73,VWS V14.00,2013-03-12 20:25:00,
2013-03-12 13:30:00,50.1,48.4,29.97,WNW,302,1.0,4.0,94,0.00,,---,0.73,VWS V14.00,2013-03-12 20:30:00,
2013-03-12 13:35:00,49.9,48.2,29.98,North,5,0.0,4.0,94,0.00,,---,0.73,VWS V14.00,2013-03-12 20:35:00,
2013-03-12 13:40:00,50.1,48.4,29.98,NE,52,3.0,8.0,94,0.00,,---,0.73,VWS V14.00,2013-03-12 20:40:00,
2013-03-12 13:45:00,50.3,48.6,29.98,West,277,1.0,4.0,94,0.00,,---,0.73,VWS V14.00,2013-03-12 20:45:00,
2013-03-12 13:50:00,50.7,49.0,29.97,West,277,0.0,2.0,94,0.00,,---,0.73,VWS V14.00,2013-03-12 20:50:00,
2013-03-12 13:55:00,50.4,48.5,29.97,West,277,0.0,1.0,93,0.00,,---,0.73,VWS V14.00,2013-03-12 20:55:00,
2013-03-12 14:00:00,50.4,48.5,29.98,West,261,0.0,1.0,93,0.00,,---,0.73,VWS V14.00,2013-03-12 21:00:00,
2013-03-12 14:05:00,50.6,48.9,29.98,NE,40,0.0,3.0,94,0.00,,---,0.73,VWS V14.00,2013-03-12 21:05:00,
2013-03-12 14:10:00,51.7,50.0,29.97,NNW,327,0.0,2.0,94,0.00,,---,0.73,VWS V14.00,2013-03-12 21:10:00,
2013-03-12 14:15:00,51.4,49.5,29.97,WNW,286,0.0,4.0,93,0.00,,---,0.73,VWS V14.00,2013-03-12 21:15:00,
2013-03-12 14:19:00,51.6,49.7,29.97,West,277,0.0,4.0,93,0.00,,---,0.73,VWS V14.00,2013-03-12 21:19:00,
2013-03-12 14:24:00,52.4,50.2,29.97,West,279,0.0,2.0,92,0.00,,---,0.73,VWS V14.00,2013-03-12 21:24:00,
2013-03-12 14:29:00,52.4,50.2,29.97,West,279,1.0,1.0,92,0.00,,---,0.73,VWS V14.00,2013-03-12 21:29:00,
2013-03-12 14:34:00,52.0,49.5,29.97,NW,320,0.0,2.0,91,0.00,,---,0.73,VWS V14.00,2013-03-12 21:34:00,
2013-03-12 14:39:00,52.2,49.7,29.97,NW,304,0.0,2.0,91,0.00,,---,0.73,VWS V14.00,2013-03-12 21:39:00,
2013-03-12 14:44:00,51.8,49.3,29.97,NW,304,0.0,2.0,91,0.00,,---,0.73,VWS V14.00,2013-03-12 21:44:00,
2013-03-12 14:49:00,51.9,49.7,29.97,WNW,283,4.0,5.0,92,0.00,,---,0.73,VWS V14.00,2013-03-12 21:49:00,
2013-03-12 14:54:00,51.8,49.0,29.97,WNW,298,5.0,5.0,90,0.00,,---,0.73,VWS V14.00,2013-03-12 21:54:00,
2013-03-12 14:59:00,52.1,49.6,29.97,WNW,292,1.0,4.0,91,0.00,,---,0.73,VWS V14.00,2013-03-12 21:59:00,
2013-03-12 15:04:00,52.0,49.8,29.97,WNW,292,4.0,4.0,92,0.00,,---,0.73,VWS V14.00,2013-03-12 22:04:00,
2013-03-12 15:09:00,51.3,49.1,29.97,West,279,2.0,5.0,92,0.00,,---,0.73,VWS V14.00,2013-03-12 22:09:00,
2013-03-12 15:14:00,51.1,48.9,29.97,WSW,238,0.0,3.0,92,0.00,,---,0.73,VWS V14.00,2013-03-12 22:14:00,
2013-03-12 15:19:00,51.8,49.5,29.97,WNW,296,4.0,4.0,92,0.00,,---,0.73,VWS V14.00,2013-03-12 22:19:00,
2013-03-12 15:24:00,51.2,48.7,29.98,NW,312,0.0,5.0,91,0.00,,---,0.73,VWS V14.00,2013-03-12 22:24:00,
2013-03-12 15:29:00,50.9,48.7,29.97,NW,313,0.0,1.0,92,0.00,,---,0.73,VWS V14.00,2013-03-12 22:29:00,
2013-03-12 15:34:00,51.5,49.3,29.97,NW,313,0.0,2.0,92,0.00,,---,0.73,VWS V14.00,2013-03-12 22:34:00,
2013-03-12 15:39:00,51.4,48.9,29.97,NW,313,0.0,1.0,91,0.00,,---,0.73,VWS V14.00,2013-03-12 22:39:00,
2013-03-12 15:44:00,51.2,48.7,29.97,WNW,297,1.0,2.0,91,0.00,,---,0.73,VWS V14.00,2013-03-12 22:44:00,
2013-03-12 15:49:00,51.6,49.1,29.97,West,276,0.0,4.0,91,0.00,,---,0.73,VWS V14.00,2013-03-12 22:49:00,
2013-03-12 15:54:00,51.4,48.9,29.97,West,276,1.0,2.0,91,0.00,,---,0.73,VWS V14.00,2013-03-12 22:54:00,
2013-03-12 15:59:00,51.6,48.8,29.97,West,276,0.0,1.0,90,0.00,,---,0.73,VWS V14.00,2013-03-12 22:59:00,
2013-03-12 16:04:00,51.0,48.5,29.97,West,276,0.0,2.0,91,0.00,,---,0.73,VWS V14.00,2013-03-12 23:04:00,
2013-03-12 16:09:00,51.4,48.6,29.97,West,276,0.0,0.0,90,0.00,,---,0.73,VWS V14.00,2013-03-12 23:09:00,
2013-03-12 16:14:00,51.7,48.9,29.97,West,277,0.0,0.0,90,0.00,,---,0.73,VWS V14.00,2013-03-12 23:14:00,
2013-03-12 16:19:00,51.6,49.1,29.97,West,276,0.0,0.0,91,0.00,,---,0.73,VWS V14.00,2013-03-12 23:19:00,
2013-03-12 16:24:00,51.8,49.3,29.97,West,276,1.0,1.0,91,0.00,,---,0.73,VWS V14.00,2013-03-12 23:24:00,
2013-03-12 16:29:00,51.8,49.0,29.97,West,276,0.0,1.0,90,0.00,,---,0.73,VWS V14.00,2013-03-12 23:29:00,
2013-03-12 16:34:00,51.8,49.0,29.97,NW,317,0.0,2.0,90,0.00,,---,0.73,VWS V14.00,2013-03-12 23:34:00,
2013-03-12 16:39:00,51.8,49.0,29.97,NW,317,0.0,0.0,90,0.00,,---,0.73,VWS V14.00,2013-03-12 23:39:00,
2013-03-12 16:44:00,51.7,48.9,29.97,NW,317,0.0,0.0,90,0.00,,---,0.73,VWS V14.00,2013-03-12 23:44:00,
2013-03-12 16:49:00,51.8,49.0,29.97,NW,317,0.0,0.0,90,0.00,,---,0.73,VWS V14.00,2013-03-12 23:49:00,
2013-03-12 16:54:00,51.6,49.1,29.97,NW,317,0.0,0.0,91,0.00,,---,0.73,VWS V14.00,2013-03-12 23:54:00,
2013-03-12 16:59:00,51.4,48.9,29.97,NW,317,0.0,0.0,91,0.00,,---,0.73,VWS V14.00,2013-03-12 23:59:00,
2013-03-12 17:04:00,51.5,49.0,29.96,NW,317,0.0,2.0,91,0.00,,---,0.73,VWS V14.00,2013-03-13 00:04:00,
2013-03-12 17:09:00,51.1,48.6,29.96,NW,317,0.0,0.0,91,0.00,,---,0.73,VWS V14.00,2013-03-13 00:09:00,
2013-03-12 17:14:00,50.7,48.2,29.95,NW,317,0.0,1.0,91,0.00,,---,0.73,VWS V14.00,2013-03-13 00:14:00,
2013-03-12 17:19:00,50.4,47.9,29.95,NW,317,0.0,1.0,91,0.00,,---,0.73,VWS V14.00,2013-03-13 00:19:00,
2013-03-12 17:24:00,50.3,48.1,29.95,NW,317,0.0,0.0,92,0.00,,---,0.73,VWS V14.00,2013-03-13 00:24:00,
2013-03-12 17:29:00,50.2,48.0,29.95,NW,317,0.0,1.0,92,0.00,,---,0.73,VWS V14.00,2013-03-13 00:29:00,
2013-03-12 17:34:00,49.9,47.7,29.95,NW,317,0.0,1.0,92,0.00,,---,0.73,VWS V14.00,2013-03-13 00:34:00,
2013-03-12 17:39:00,49.4,47.2,29.95,West,273,1.0,5.0,92,0.00,,---,0.73,VWS V14.00,2013-03-13 00:39:00,
2013-03-12 17:44:00,49.1,46.9,29.94,SE,126,0.0,2.0,92,0.00,,---,0.73,VWS V14.00,2013-03-13 00:44:00,
2013-03-12 17:49:00,48.9,46.4,29.94,South,184,0.0,5.0,91,0.00,,---,0.73,VWS V14.00,2013-03-13 00:49:00,
2013-03-12 17:54:00,49.7,46.6,29.95,SE,146,2.0,4.0,89,0.00,,---,0.73,VWS V14.00,2013-03-13 00:54:00,
2013-03-12 17:59:00,50.3,46.6,29.94,SE,146,0.0,2.0,87,0.00,,---,0.73,VWS V14.00,2013-03-13 00:59:00,
2013-03-12 18:04:00,50.6,46.9,29.94,SE,146,0.0,1.0,87,0.00,,---,0.73,VWS V14.00,2013-03-13 01:04:00,
2013-03-12 18:09:00,49.8,46.1,29.95,SW,232,2.0,3.0,87,0.00,,---,0.73,VWS V14.00,2013-03-13 01:09:00,
2013-03-12 18:14:00,49.0,45.9,29.95,SW,232,0.0,2.0,89,0.00,,---,0.73,VWS V14.00,2013-03-13 01:14:00,
2013-03-12 18:19:00,48.7,45.9,29.95,NW,306,1.0,4.0,90,0.00,,---,0.73,VWS V14.00,2013-03-13 01:19:00,
2013-03-12 18:24:00,48.6,45.8,29.95,NW,306,1.0,2.0,90,0.00,,---,0.73,VWS V14.00,2013-03-13 01:24:00,
2013-03-12 18:29:00,48.4,45.6,29.95,WNW,288,4.0,5.0,90,0.00,,---,0.73,VWS V14.00,2013-03-13 01:29:00,
2013-03-12 18:34:00,48.0,45.5,29.95,West,280,0.0,4.0,91,0.00,,---,0.73,VWS V14.00,2013-03-13 01:34:00,
2013-03-12 18:39:00,47.9,45.4,29.95,NW,308,1.0,5.0,91,0.00,,---,0.73,VWS V14.00,2013-03-13 01:39:00,
2013-03-12 18:44:00,47.7,45.2,29.95,NW,308,0.0,4.0,91,0.00,,---,0.73,VWS V14.00,2013-03-13 01:44:00,
2013-03-12 18:49:00,47.4,44.9,29.95,NW,308,0.0,2.0,91,0.00,,---,0.73,VWS V14.00,2013-03-13 01:49:00,
2013-03-12 18:54:00,47.4,44.9,29.95,NW,308,0.0,0.0,91,0.00,,---,0.73,VWS V14.00,2013-03-13 01:54:00,
2013-03-12 18:59:00,47.5,45.3,29.95,NW,308,0.0,1.0,92,0.00,,---,0.73,VWS V14.00,2013-03-13 01:59:00,
2013-03-12 19:04:00,47.6,45.4,29.94,NW,308,0.0,0.0,92,0.00,,---,0.73,VWS V14.00,2013-03-13 02:04:00,
2013-03-12 19:09:00,47.6,45.4,29.94,SW,232,1.0,1.0,92,0.00,,---,0.73,VWS V14.00,2013-03-13 02:09:00,
2013-03-12 19:14:00,47.8,45.6,29.94,SW,219,0.0,1.0,92,0.00,,---,0.73,VWS V14.00,2013-03-13 02:14:00,
2013-03-12 19:19:00,47.8,45.6,29.94,SW,219,0.0,1.0,92,0.00,,---,0.73,VWS V14.00,2013-03-13 02:19:00,
2013-03-12 19:24:00,47.6,45.1,29.94,SW,234,1.0,4.0,91,0.00,,---,0.73,VWS V14.00,2013-03-13 02:24:00,
2013-03-12 19:29:00,47.1,44.6,29.93,SW,234,0.0,2.0,91,0.00,,---,0.73,VWS V14.00,2013-03-13 02:29:00,
2013-03-12 19:34:00,46.8,44.6,29.93,SW,234,0.0,2.0,92,0.00,,---,0.73,VWS V14.00,2013-03-13 02:34:00,
2013-03-12 19:39:00,46.4,44.2,29.93,SW,234,0.0,1.0,92,0.00,,---,0.73,VWS V14.00,2013-03-13 02:39:00,
2013-03-12 19:44:00,46.1,43.9,29.93,SW,234,0.0,0.0,92,0.00,,---,0.73,VWS V14.00,2013-03-13 02:44:00,
2013-03-12 19:49:00,46.2,44.0,29.93,SW,234,0.0,1.0,92,0.00,,---,0.73,VWS V14.00,2013-03-13 02:49:00,
2013-03-12 19:54:00,46.1,43.9,29.93,SW,234,0.0,0.0,92,0.00,,---,0.73,VWS V14.00,2013-03-13 02:54:00,
2013-03-12 19:59:00,46.0,43.8,29.93,SW,234,0.0,0.0,92,0.00,,---,0.73,VWS V14.00,2013-03-13 02:59:00,
2013-03-12 20:04:00,45.9,43.7,29.93,SW,234,0.0,0.0,92,0.00,,---,0.73,VWS V14.00,2013-03-13 03:04:00,
2013-03-12 20:09:00,45.9,44.0,29.93,SW,234,0.0,0.0,93,0.00,,---,0.73,VWS V14.00,2013-03-13 03:09:00,
2013-03-12 20:14:00,45.8,43.6,29.94,SW,234,0.0,0.0,92,0.00,,---,0.73,VWS V14.00,2013-03-13 03:14:00,
2013-03-12 20:19:00,45.5,43.3,29.94,SW,234,0.0,1.0,92,0.00,,---,0.73,VWS V14.00,2013-03-13 03:19:00,
2013-03-12 20:24:00,45.3,43.1,29.94,SE,146,0.0,0.0,92,0.00,,---,0.73,VWS V14.00,2013-03-13 03:24:00,
2013-03-12 20:29:00,45.2,43.0,29.94,SE,145,0.0,0.0,92,0.00,,---,0.73,VWS V14.00,2013-03-13 03:29:00,
2013-03-12 20:34:00,45.4,43.5,29.94,SE,145,0.0,1.0,93,0.00,,---,0.73,VWS V14.00,2013-03-13 03:34:00,
2013-03-12 20:39:00,45.5,43.6,29.94,SE,142,0.0,5.0,93,0.00,,---,0.73,VWS V14.00,2013-03-13 03:39:00,
2013-03-12 20:44:00,45.8,43.9,29.95,East,84,0.0,2.0,93,0.00,,---,0.73,VWS V14.00,2013-03-13 03:44:00,
2013-03-12 20:49:00,45.8,43.9,29.94,East,84,0.0,1.0,93,0.00,,---,0.73,VWS V14.00,2013-03-13 03:49:00,
2013-03-12 20:54:00,45.4,43.5,29.95,East,84,2.0,2.0,93,0.00,,---,0.73,VWS V14.00,2013-03-13 03:54:00,
2013-03-12 20:59:00,45.1,43.2,29.94,East,84,0.0,2.0,93,0.00,,---,0.73,VWS V14.00,2013-03-13 03:59:00,
2013-03-12 21:00:00,45.1,43.2,29.95,East,84,0.0,1.0,93,0.00,,---,0.73,VWS V14.00,2013-03-13 04:00:00,
2013-03-12 21:05:00,45.1,43.2,29.94,East,84,0.0,2.0,93,0.00,,---,0.73,VWS V14.00,2013-03-13 04:05:00,
2013-03-12 21:10:00,45.2,43.3,29.94,East,84,0.0,0.0,93,0.00,,---,0.73,VWS V14.00,2013-03-13 04:10:00,
2013-03-12 21:15:00,45.2,43.3,29.95,East,84,0.0,1.0,93,0.00,,---,0.73,VWS V14.00,2013-03-13 04:15:00,
2013-03-12 21:20:00,45.3,43.4,29.95,East,84,0.0,0.0,93,0.00,,---,0.73,VWS V14.00,2013-03-13 04:20:00,
2013-03-12 21:25:00,45.4,43.5,29.95,East,84,0.0,0.0,93,0.00,,---,0.73,VWS V14.00,2013-03-13 04:25:00,
2013-03-12 21:30:00,45.5,43.6,29.95,East,84,0.0,2.0,93,0.00,,---,0.73,VWS V14.00,2013-03-13 04:30:00,
2013-03-12 21:35:00,45.5,43.6,29.95,East,84,0.0,1.0,93,0.00,,---,0.73,VWS V14.00,2013-03-13 04:35:00,
2013-03-12 21:40:00,45.6,43.7,29.95,East,84,0.0,1.0,93,0.00,,---,0.73,VWS V14.00,2013-03-13 04:40:00,
2013-03-12 21:45:00,45.5,43.6,29.96,East,84,1.0,2.0,93,0.00,,---,0.73,VWS V14.00,2013-03-13 04:45:00,
2013-03-12 21:50:00,45.3,43.4,29.95,East,84,0.0,2.0,93,0.00,,---,0.73,VWS V14.00,2013-03-13 04:50:00,
2013-03-12 21:55:00,45.5,43.6,29.95,East,84,0.0,3.0,93,0.00,,---,0.73,VWS V14.00,2013-03-13 04:55:00,
2013-03-12 22:00:00,45.7,43.8,29.95,East,84,0.0,0.0,93,0.00,,---,0.73,VWS V14.00,2013-03-13 05:00:00,
2013-03-12 22:05:00,45.8,43.9,29.95,East,84,0.0,1.0,93,0.00,,---,0.73,VWS V14.00,2013-03-13 05:05:00,
2013-03-12 22:10:00,46.0,44.1,29.94,East,90,0.0,3.0,93,0.00,,---,0.73,VWS V14.00,2013-03-13 05:10:00,
2013-03-12 22:15:00,46.1,44.2,29.95,WSW,244,0.0,3.0,93,0.00,,---,0.73,VWS V14.00,2013-03-13 05:15:00,
2013-03-12 22:20:00,46.1,44.2,29.95,East,90,0.0,1.0,93,0.00,,---,0.73,VWS V14.00,2013-03-13 05:20:00,
2013-03-12 22:25:00,46.1,44.2,29.95,East,90,0.0,1.0,93,0.00,,---,0.73,VWS V14.00,2013-03-13 05:25:00,
2013-03-12 22:30:00,46.3,44.4,29.96,South,187,0.0,2.0,93,0.00,,---,0.73,VWS V14.00,2013-03-13 05:30:00,
2013-03-12 22:35:00,46.5,44.6,29.96,South,187,0.0,1.0,93,0.00,,---,0.73,VWS V14.00,2013-03-13 05:35:00,
2013-03-12 22:40:00,46.7,44.8,29.96,South,180,0.0,1.0,93,0.00,,---,0.73,VWS V14.00,2013-03-13 05:40:00,
2013-03-12 22:45:00,46.7,44.8,29.96,South,181,0.0,1.0,93,0.00,,---,0.73,VWS V14.00,2013-03-13 05:45:00,
2013-03-12 22:50:00,46.7,44.8,29.96,South,181,0.0,1.0,93,0.00,,---,0.73,VWS V14.00,2013-03-13 05:50:00,
2013-03-12 22:55:00,46.7,44.8,29.97,South,181,0.0,1.0,93,0.00,,---,0.73,VWS V14.00,2013-03-13 05:55:00,
2013-03-12 23:00:00,46.7,44.5,29.97,South,171,0.0,4.0,92,0.00,,---,0.73,VWS V14.00,2013-03-13 06:00:00,
2013-03-12 23:05:00,46.7,44.5,29.97,SE,146,0.0,4.0,92,0.00,,---,0.73,VWS V14.00,2013-03-13 06:05:00,
2013-03-12 23:10:00,46.7,44.5,29.97,South,189,2.0,3.0,92,0.00,,---,0.73,VWS V14.00,2013-03-13 06:10:00,
2013-03-12 23:15:00,46.9,44.7,29.99,SE,144,2.0,4.0,92,0.00,,---,0.73,VWS V14.00,2013-03-13 06:15:00,
2013-03-12 23:20:00,47.1,44.9,29.99,SSW,194,1.0,2.0,92,0.00,,---,0.73,VWS V14.00,2013-03-13 06:20:00,
2013-03-12 23:25:00,47.5,45.3,29.99,South,170,4.0,4.0,92,0.00,,---,0.73,VWS V14.00,2013-03-13 06:25:00,
2013-03-12 23:30:00,47.7,45.2,29.98,East,85,0.0,2.0,91,0.00,,---,0.73,VWS V14.00,2013-03-13 06:30:00,
2013-03-12 23:35:00,47.8,45.3,29.98,SW,223,0.0,3.0,91,0.00,,---,0.73,VWS V14.00,2013-03-13 06:35:00,
2013-03-12 23:40:00,47.8,45.3,29.97,SSW,206,1.0,2.0,91,0.13,,---,0.75,VWS V14.00,2013-03-13 06:40:00,
2013-03-12 23:45:00,47.6,45.1,29.98,West,270,1.0,2.0,91,0.10,,---,0.76,VWS V14.00,2013-03-13 06:45:00,
2013-03-12 23:50:00,47.0,44.5,29.98,West,268,3.0,6.0,91,0.05,,---,0.76,VWS V14.00,2013-03-13 06:50:00,
2013-03-12 23:55:00,46.7,44.2,29.97,West,275,0.0,4.0,91,0.03,,---,0.76,VWS V14.00,2013-03-13 06:55:00,